N1OF Weather Reports


time (UTC)temp
C
wind
direction
speed
KPH
gust
KPH
rain 1hr
cm
rain 24hr
cm
rain mn
cm
humidity
%
barometer
mb
20260508185306 12 319 0.0 0.0 0.00 0.25 0.25 89 1011.7
20260508184756 12 185 1.6 3.2 0.00 0.25 0.25 89 1011.9
20260508184254 11 257 1.6 6.4 0.00 0.25 0.25 89 1012.0
20260508183751 11 251 0.0 1.6 0.00 0.25 0.25 91 1011.8
20260508183247 11 156 0.0 1.6 0.00 0.25 0.25 91 1011.9
20260508182743 11 180 1.6 1.6 0.00 0.25 0.25 91 1012.3
20260508182240 11 222 1.6 3.2 0.13 0.25 0.25 91 1012.1
20260508181736 11 307 3.2 4.8 0.30 0.25 0.25 91 1012.1
20260508181233 11 359 0.0 3.2 0.18 0.23 0.23 91 1012.5
20260508180729 11 182 0.0 4.8 0.13 0.20 0.20 90 1012.5
20260508180226 11 255 3.2 3.2 0.43 0.20 0.20 90 1012.5
20260508175723 11 202 3.2 4.8 0.13 0.15 0.15 88 1012.6
20260508175220 11 251 3.2 9.7 0.18 0.13 0.13 88 1012.7
20260508174718 11 289 4.8 6.4 0.36 0.13 0.13 86 1012.4
20260508174215 11 150 6.4 9.7 0.18 0.10 0.10 85 1012.3
20260508173711 12 270 9.7 12.9 0.00 0.08 0.08 83 1012.5
20260508173207 12 173 9.7 14.5 0.00 0.08 0.08 82 1011.9
20260508172704 13 233 3.2 9.7 0.00 0.08 0.08 80 1012.0
20260508172201 13 300 9.7 12.9 0.00 0.08 0.08 79 1012.1
20260508171657 13 210 6.4 6.4 0.00 0.08 0.08 80 1012.2
20260508171154 13 281 8.0 9.7 0.00 0.08 0.08 79 1012.5
20260508170651 12 202 3.2 12.9 0.00 0.08 0.08 81 1012.5
20260508170149 12 294 3.2 4.8 0.00 0.08 0.08 82 1012.8
20260508165645 12 247 4.8 12.9 0.00 0.08 0.08 81 1012.8
20260508165142 12 123 1.6 9.7 0.00 0.08 0.08 82 1013.0
20260508164639 12 234 3.2 9.7 0.00 0.08 0.08 82 1012.8
20260508164136 12 198 4.8 9.7 0.00 0.08 0.08 82 1012.8
20260508163633 11 226 1.6 6.4 0.00 0.08 0.08 83 1012.7
20260508163130 11 191 1.6 6.4 0.00 0.08 0.08 83 1013.1
20260508162626 11 191 3.2 6.4 0.00 0.08 0.08 82 1013.3
20260508162123 11 275 3.2 4.8 0.00 0.08 0.08 82 1013.7
20260508161620 11 188 8.0 12.9 0.00 0.08 0.08 80 1013.7
20260508161112 11 257 6.4 11.3 0.00 0.08 0.08 80 1013.4
20260508160611 11 265 4.8 4.8 0.00 0.08 0.08 80 1013.5
20260508160107 12 307 9.7 11.3 0.00 0.08 0.08 78 1013.8
20260508155604 12 243 1.6 4.8 0.00 0.08 0.08 77 1013.4
20260508155101 12 338 0.0 9.7 0.00 0.08 0.08 76 1013.5
20260508154558 12 227 3.2 4.8 0.00 0.08 0.08 74 1013.6
20260508154055 12 266 4.8 11.3 0.00 0.08 0.08 72 1013.4
20260508153552 12 217 6.4 11.3 0.00 0.08 0.08 71 1013.5
20260508153048 12 269 1.6 3.2 0.00 0.08 0.08 71 1013.5
20260508152546 12 309 6.4 11.3 0.00 0.08 0.08 71 1013.4
20260508152041 12 268 1.6 4.8 0.00 0.08 0.08 71 1013.4
20260508151538 12 272 8.0 9.7 0.00 0.08 0.08 71 1013.4
20260508151034 12 232 3.2 6.4 0.00 0.08 0.08 71 1013.2
20260508150532 12 266 4.8 6.4 0.00 0.08 0.08 71 1013.2
20260508150027 12 18 0.0 4.8 0.00 0.08 0.08 71 1013.2
20260508145524 12 270 3.2 9.7 0.00 0.08 0.08 71 1013.4
20260508145020 12 301 3.2 9.7 0.00 0.08 0.08 71 1013.4
20260508144518 12 222 3.2 6.4 0.00 0.08 0.08 71 1013.4
20260508144015 12 323 4.8 9.7 0.00 0.08 0.08 70 1013.4
20260508143513 12 282 3.2 9.7 0.00 0.08 0.08 70 1013.2
20260508143009 12 292 6.4 6.4 0.00 0.08 0.08 69 1013.4
20260508142507 12 308 4.8 6.4 0.00 0.08 0.08 71 1013.3
20260508142003 12 322 3.2 12.9 0.00 0.08 0.08 70 1013.4
20260508141459 12 310 3.2 9.7 0.00 0.08 0.08 70 1013.2
20260508140957 12 180 4.8 16.1 0.00 0.08 0.08 69 1013.3
20260508140454 12 148 3.2 6.4 0.00 0.08 0.08 69 1013.5
20260508135949 12 287 3.2 6.4 0.00 0.08 0.08 69 1013.4
20260508135446 12 2 4.8 9.7 0.00 0.08 0.08 69 1013.3
20260508134943 12 155 1.6 6.4 0.00 0.08 0.08 69 1013.2
20260508134439 12 289 1.6 3.2 0.00 0.08 0.08 70 1013.4
20260508133936 11 283 1.6 4.8 0.00 0.08 0.08 71 1013.5
20260508133434 11 299 4.8 11.3 0.00 0.08 0.08 71 1013.6
20260508132931 12 268 6.4 6.4 0.00 0.08 0.08 71 1013.5
20260508132429 12 322 1.6 3.2 0.00 0.08 0.08 71 1013.5
20260508131925 12 288 4.8 4.8 0.00 0.08 0.08 71 1013.4
20260508131420 11 333 4.8 12.9 0.00 0.08 0.08 70 1013.3
20260508130918 12 166 3.2 9.7 0.00 0.08 0.08 70 1013.3
20260508130415 11 180 1.6 4.8 0.00 0.08 0.08 71 1013.6
20260508125910 11 279 8.0 14.5 0.00 0.08 0.08 71 1013.3
20260508125407 11 232 4.8 9.7 0.00 0.08 0.08 70 1013.3
20260508124905 11 296 1.6 4.8 0.00 0.08 0.08 71 1013.4
20260508124402 11 299 6.4 6.4 0.00 0.08 0.08 71 1013.6
20260508123900 11 178 3.2 4.8 0.00 0.08 0.08 72 1013.3
20260508123358 11 295 1.6 3.2 0.00 0.08 0.08 73 1013.3
20260508122854 11 288 8.0 9.7 0.00 0.08 0.08 71 1013.4
20260508122351 10 287 1.6 6.4 0.00 0.08 0.08 72 1013.4
20260508121848 10 280 1.6 3.2 0.00 0.08 0.08 73 1013.2
20260508121346 10 205 1.6 6.4 0.00 0.08 0.08 73 1013.3
20260508120843 10 239 3.2 6.4 0.00 0.08 0.08 73 1013.3
20260508120342 10 215 4.8 4.8 0.00 0.08 0.08 73 1013.5
20260508115839 10 205 3.2 9.7 0.00 0.08 0.08 73 1013.5
20260508115336 10 312 0.0 3.2 0.00 0.08 0.08 74 1013.1
20260508114832 9 317 3.2 4.8 0.00 0.08 0.08 75 1013.3
20260508114329 9 300 1.6 6.4 0.00 0.08 0.08 75 1013.0
20260508113826 9 205 1.6 3.2 0.00 0.08 0.08 75 1012.9
20260508113324 9 203 4.8 6.4 0.00 0.08 0.08 74 1013.0
20260508112820 9 282 3.2 4.8 0.00 0.08 0.08 75 1012.7
20260508112318 9 191 3.2 6.4 0.00 0.08 0.08 75 1012.9
20260508111814 8 286 1.6 9.7 0.00 0.08 0.08 75 1012.5
20260508111311 8 220 1.6 4.8 0.00 0.08 0.08 76 1012.6
20260508110808 8 151 1.6 3.2 0.00 0.08 0.08 77 1012.4
20260508110305 8 263 3.2 4.8 0.00 0.08 0.08 77 1012.4
20260508105805 8 280 3.2 4.8 0.00 0.08 0.08 78 1012.5
20260508105305 8 227 1.6 3.2 0.00 0.08 0.08 80 1012.5
20260508104759 7 266 1.6 3.2 0.00 0.08 0.08 81 1012.7
20260508104256 7 243 1.6 1.6 0.00 0.08 0.08 83 1012.4
20260508103753 7 190 0.0 3.2 0.00 0.08 0.08 85 1012.4
20260508103250 6 233 1.6 4.8 0.00 0.08 0.08 90 1012.5
20260508102747 6 203 1.6 1.6 0.00 0.08 0.08 94 1012.4
20260508102245 6 161 0.0 1.6 0.00 0.08 0.08 95 1012.5
20260508101742 6 157 0.0 0.0 0.00 0.08 0.08 95 1012.5
20260508101240 6 150 0.0 0.0 0.00 0.08 0.08 95 1012.6
20260508100738 6 197 0.0 0.0 0.00 0.08 0.08 95 1012.4
20260508100235 6 220 0.0 0.0 0.00 0.08 0.08 94 1012.5
20260508095731 6 226 0.0 0.0 0.00 0.08 0.08 94 1012.5
20260508095229 6 240 0.0 0.0 0.00 0.08 0.08 94 1012.6
20260508094725 6 251 0.0 0.0 0.00 0.08 0.08 93 1012.6
20260508094222 6 251 0.0 0.0 0.00 0.08 0.08 93 1012.6
20260508093720 6 278 0.0 0.0 0.00 0.08 0.08 93 1012.7
20260508093217 6 278 0.0 0.0 0.00 0.08 0.08 92 1012.6
20260508092714 6 278 0.0 0.0 0.00 0.08 0.08 92 1012.4
20260508092212 6 256 0.0 0.0 0.00 0.08 0.08 92 1012.7
20260508091709 6 278 0.0 0.0 0.00 0.08 0.08 91 1012.7
20260508091207 6 278 0.0 0.0 0.00 0.08 0.08 90 1012.5
20260508090704 7 278 0.0 0.0 0.00 0.08 0.08 90 1012.7
20260508090202 7 212 0.0 0.0 0.00 0.08 0.08 90 1012.6
20260508085657 7 222 0.0 0.0 0.00 0.08 0.08 89 1012.5
20260508085155 7 222 0.0 0.0 0.00 0.08 0.08 89 1012.5
20260508084651 7 222 0.0 0.0 0.00 0.08 0.08 89 1012.4
20260508084149 7 144 0.0 0.0 0.00 0.08 0.08 88 1012.6
20260508083646 7 180 0.0 1.6 0.00 0.08 0.08 88 1012.6
20260508083144 7 193 0.0 0.0 0.00 0.08 0.08 88 1012.6
20260508082644 7 174 0.0 0.0 0.00 0.08 0.08 88 1012.7
20260508082141 7 197 0.0 0.0 0.00 0.08 0.08 88 1012.8
20260508081639 7 177 0.0 1.6 0.00 0.08 0.08 88 1012.8
20260508081135 7 146 0.0 1.6 0.00 0.08 0.08 88 1012.6
20260508080633 7 232 0.0 1.6 0.00 0.08 0.08 88 1012.8
20260508080131 7 165 0.0 1.6 0.00 0.08 0.08 89 1012.9
20260508075627 7 116 0.0 0.0 0.00 0.08 0.08 88 1012.9
20260508075124 7 162 0.0 0.0 0.00 0.08 0.08 88 1012.7
20260508074622 7 148 0.0 0.0 0.00 0.08 0.08 87 1012.7
20260508074118 7 147 0.0 0.0 0.00 0.08 0.08 87 1013.1
20260508073616 8 122 0.0 1.6 0.00 0.08 0.08 86 1012.8
20260508073114 8 129 0.0 0.0 0.00 0.08 0.08 86 1012.9
20260508072608 8 211 1.6 3.2 0.00 0.08 0.08 86 1013.1
20260508072106 8 215 0.0 0.0 0.00 0.08 0.08 85 1013.0
20260508071604 8 184 3.2 4.8 0.00 0.08 0.08 85 1013.0
20260508071102 8 309 0.0 3.2 0.00 0.08 0.08 84 1013.2
20260508070559 8 193 0.0 3.2 0.00 0.08 0.08 84 1013.2
20260508070057 8 165 3.2 3.2 0.00 0.08 0.08 84 1013.0
20260508065554 8 189 0.0 0.0 0.00 0.08 0.08 83 1013.1
20260508065052 8 143 3.2 4.8 0.00 0.08 0.08 83 1012.9
20260508064550 8 153 0.0 0.0 0.00 0.08 0.08 82 1013.1
20260508064048 8 266 3.2 4.8 0.00 0.08 0.08 83 1013.2
20260508063544 8 205 3.2 4.8 0.00 0.08 0.08 84 1013.2
20260508063043 8 279 1.6 1.6 0.00 0.08 0.08 87 1013.3
20260508062540 8 197 0.0 0.0 0.00 0.08 0.08 87 1013.0
20260508062036 8 255 0.0 1.6 0.00 0.08 0.08 87 1013.2
20260508061534 8 241 1.6 3.2 0.00 0.08 0.08 89 1013.2
20260508061031 8 287 1.6 3.2 0.00 0.08 0.08 90 1013.0
20260508060528 8 141 1.6 3.2 0.00 0.08 0.08 90 1013.5
20260508060025 7 147 0.0 3.2 0.00 0.08 0.08 91 1013.4
20260508055521 8 201 1.6 3.2 0.00 0.08 0.08 90 1013.5
20260508055018 8 225 1.6 4.8 0.00 0.08 0.08 91 1013.6
20260508054514 7 157 1.6 6.4 0.00 0.08 0.08 91 1013.6
20260508054012 7 223 1.6 3.2 0.00 0.08 0.08 91 1013.7
20260508053508 7 210 1.6 3.2 0.00 0.08 0.08 91 1013.9
20260508053007 8 250 0.0 1.6 0.00 0.08 0.08 91 1013.7
20260508052503 8 258 0.0 0.0 0.00 0.08 0.08 90 1013.8
20260508052000 8 180 0.0 0.0 0.00 0.08 0.08 90 1013.8
20260508051455 8 257 0.0 1.6 0.00 0.08 0.08 90 1013.8
20260508050951 8 148 0.0 0.0 0.00 0.08 0.08 89 1013.9
20260508050448 8 174 1.6 3.2 0.00 0.08 0.08 88 1013.8
20260508045945 8 200 3.2 3.2 0.13 0.08 0.08 88 1013.9
20260508045442 8 217 0.0 1.6 0.13 0.08 0.08 87 1014.0
20260508044939 8 190 1.6 4.8 0.00 0.05 0.05 87 1014.0
20260508044436 8 296 4.8 9.7 0.00 0.05 0.05 86 1014.6
20260508043931 8 293 9.7 14.5 0.00 0.05 0.05 85 1014.6
20260508043429 8 308 0.0 11.3 0.18 0.05 0.05 83 1014.6
20260508042925 9 226 1.6 12.9 0.30 0.05 0.05 81 1014.6
20260508042424 9 152 1.6 4.8 0.13 0.03 0.03 79 1014.5
20260508041920 9 194 1.6 6.4 0.00 0.00 0.00 76 1014.3
20260508041417 9 269 3.2 4.8 0.00 0.00 0.00 77 1014.2
20260508040913 8 245 0.0 17.7 0.00 0.00 0.00 77 1014.2
20260508040411 8 195 1.6 1.6 0.00 0.00 0.00 83 1014.0
20260508035909 8 133 0.0 0.0 0.18 0.03 0.03 82 1013.7
20260508035405 9 107 0.0 0.0 0.18 0.03 0.03 80 1013.9
20260508034902 9 157 0.0 0.0 0.00 0.00 0.00 79 1014.2
20260508034359 9 128 1.6 1.6 0.00 0.00 0.00 77 1013.8
20260508033856 8 276 0.0 0.0 0.00 0.00 0.00 78 1014.0
20260508033354 8 89 0.0 0.0 0.00 0.00 0.00 79 1013.6
20260508032852 8 89 0.0 0.0 0.00 0.00 0.00 78 1013.7
20260508032349 8 88 0.0 0.0 0.00 0.00 0.00 79 1013.5
20260508031845 8 88 0.0 0.0 0.00 0.00 0.00 79 1013.7
20260508031342 8 113 0.0 0.0 0.00 0.00 0.00 80 1013.9
20260508030838 8 114 0.0 0.0 0.00 0.00 0.00 81 1013.8
20260508030336 8 100 0.0 0.0 0.00 0.00 0.00 80 1013.9
20260508025832 8 100 0.0 0.0 0.00 0.00 0.00 79 1013.7
20260508025329 8 100 0.0 0.0 0.00 0.00 0.00 80 1013.9
20260508024826 8 91 0.0 0.0 0.00 0.00 0.00 79 1013.9
20260508024323 8 91 0.0 0.0 0.00 0.00 0.00 77 1013.9
20260508023820 8 87 0.0 0.0 0.00 0.00 0.00 78 1013.8
20260508023316 8 123 0.0 0.0 0.00 0.00 0.00 77 1014.0
20260508022813 9 16 0.0 0.0 0.00 0.00 0.00 75 1013.9
20260508022309 8 15 0.0 0.0 0.00 0.00 0.00 74 1013.9
20260508021806 8 330 0.0 1.6 0.00 0.00 0.00 74 1014.0
20260508021302 9 92 0.0 0.0 0.00 0.00 0.00 73 1014.2
20260508020758 9 93 1.6 3.2 0.00 0.00 0.00 73 1014.0
20260508020256 9 133 0.0 1.6 0.00 0.00 0.00 72 1014.0
20260508015753 10 226 1.6 1.6 0.00 0.00 0.00 69 1014.0
20260508015250 10 199 0.0 1.6 0.00 0.00 0.00 67 1013.9
20260508014747 10 254 1.6 1.6 0.00 0.00 0.00 70 1014.1
20260508014244 10 85 0.0 0.0 0.00 0.00 0.00 70 1013.8
20260508013739 10 124 0.0 0.0 0.00 0.00 0.00 67 1013.8
20260508013236 10 142 1.6 1.6 0.00 0.00 0.00 65 1014.0
20260508012734 10 185 1.6 1.6 0.00 0.00 0.00 63 1013.8
20260508012230 11 271 0.0 0.0 0.00 0.00 0.00 63 1013.8
20260508011729 10 273 1.6 1.6 0.00 0.00 0.00 62 1013.8
20260508011226 11 203 0.0 1.6 0.00 0.00 0.00 62 1013.7
20260508010722 11 286 0.0 1.6 0.00 0.00 0.00 61 1013.8
20260508010220 11 226 1.6 4.8 0.00 0.00 0.00 59 1013.7
20260508005717 11 314 0.0 6.4 0.00 0.00 0.00 57 1013.8
20260508005214 11 284 3.2 6.4 0.00 0.00 0.00 55 1013.8
20260508004710 11 292 4.8 4.8 0.00 0.00 0.00 54 1013.8
20260508004206 11 284 4.8 11.3 0.00 0.00 0.00 55 1013.7
20260508003703 11 303 1.6 6.4 0.00 0.00 0.00 55 1014.0
20260508003200 11 278 3.2 9.7 0.00 0.00 0.00 52 1013.9
20260508002656 11 280 4.8 12.9 0.00 0.00 0.00 51 1014.0
20260508002154 12 300 4.8 6.4 0.00 0.00 0.00 51 1013.9
20260508001649 12 284 1.6 3.2 0.00 0.00 0.00 50 1013.8
20260508001145 12 288 6.4 14.5 0.00 0.00 0.00 48 1013.9
20260508000642 12 312 4.8 14.5 0.00 0.00 0.00 48 1013.7
20260508000139 12 38 6.4 11.3 0.00 0.00 0.00 47 1013.7
20260507235636 12 320 6.4 9.7 0.00 0.00 0.00 47 1013.8
20260507235133 12 273 4.8 4.8 0.00 0.00 0.00 47 1013.7
20260507234630 12 302 11.3 12.9 0.00 0.00 0.00 46 1013.6
20260507234126 12 330 6.4 6.4 0.00 0.00 0.00 45 1013.3
20260507233623 12 289 14.5 17.7 0.00 0.00 0.00 44 1013.2
20260507233122 13 298 12.9 17.7 0.00 0.00 0.00 43 1013.3
20260507232618 13 299 8.0 11.3 0.00 0.00 0.00 42 1013.4
20260507232115 13 234 1.6 16.1 0.00 0.00 0.00 40 1013.3
20260507231611 13 239 8.0 17.7 0.00 0.00 0.00 39 1013.3
20260507231109 13 312 1.6 11.3 0.00 0.00 0.00 40 1013.2
20260507230605 13 290 4.8 9.7 0.00 0.00 0.00 39 1013.4
20260507225556 13 173 4.8 12.9 0.00 0.00 0.00 38 1013.1
20260507225053 14 292 6.4 6.4 0.00 0.00 0.00 38 1013.1
20260507224549 14 295 8.0 11.3 0.00 0.00 0.00 38 1013.2
20260507224046 14 282 3.2 9.7 0.00 0.00 0.00 37 1013.1
20260507223542 14 217 3.2 4.8 0.00 0.00 0.00 37 1013.2
20260507223039 13 292 3.2 11.3 0.00 0.00 0.00 39 1013.1
20260507222536 13 212 1.6 9.7 0.00 0.00 0.00 39 1013.0
20260507222032 13 306 4.8 17.7 0.00 0.00 0.00 38 1013.3
20260507221529 14 288 6.4 9.7 0.00 0.00 0.00 38 1013.2
20260507221026 15 277 4.8 6.4 0.00 0.00 0.00 36 1013.4
20260507220523 14 256 12.9 14.5 0.00 0.00 0.00 37 1013.2
20260507220021 14 302 6.4 11.3 0.00 0.00 0.00 36 1013.3
20260507215516 13 293 6.4 14.5 0.00 0.00 0.00 37 1013.1
20260507215015 14 297 8.0 17.7 0.00 0.00 0.00 36 1013.1
20260507214511 15 279 17.7 24.1 0.00 0.00 0.00 35 1013.3
20260507214007 14 285 4.8 12.9 0.00 0.00 0.00 37 1013.0
20260507213504 14 2 4.8 14.5 0.00 0.00 0.00 37 1013.2
20260507213001 13 337 4.8 9.7 0.00 0.00 0.00 37 1013.1
20260507212456 13 299 11.3 14.5 0.00 0.00 0.00 37 1013.1
20260507211954 13 262 8.0 9.7 0.00 0.00 0.00 37 1013.3
20260507211450 13 303 6.4 11.3 0.00 0.00 0.00 39 1013.1
20260507210947 14 308 6.4 9.7 0.00 0.00 0.00 37 1013.3
20260507210444 14 294 9.7 12.9 0.00 0.00 0.00 37 1013.4
20260507205940 14 333 9.7 11.3 0.00 0.00 0.00 39 1013.2
20260507205438 14 336 4.8 9.7 0.00 0.00 0.00 37 1013.2
20260507204934 15 331 8.0 11.3 0.00 0.00 0.00 36 1013.1
20260507204430 14 40 3.2 9.7 0.00 0.00 0.00 39 1013.1
20260507203928 14 260 12.9 20.9 0.00 0.00 0.00 37 1013.3
20260507203426 14 349 8.0 17.7 0.00 0.00 0.00 39 1013.1
20260507202922 15 290 8.0 11.3 0.00 0.00 0.00 39 1013.2
20260507202419 14 345 9.7 12.9 0.00 0.00 0.00 37 1013.3
20260507201914 13 351 11.3 14.5 0.00 0.00 0.00 39 1013.4
20260507201410 13 313 8.0 14.5 0.00 0.00 0.00 40 1013.4
20260507200907 14 303 8.0 14.5 0.00 0.00 0.00 38 1013.4
20260507200402 14 313 11.3 27.4 0.00 0.00 0.00 37 1013.5
20260507195858 13 338 4.8 9.7 0.00 0.00 0.00 39 1013.4
20260507195356 14 284 8.0 16.1 0.00 0.00 0.00 37 1013.6
20260507194853 13 296 9.7 12.9 0.00 0.00 0.00 40 1013.4
20260507194349 14 47 6.4 12.9 0.00 0.00 0.00 40 1013.4
20260507193846 13 305 8.0 11.3 0.00 0.00 0.00 40 1013.6
20260507193343 13 283 9.7 14.5 0.00 0.00 0.00 38 1013.8
20260507192839 14 300 8.0 22.5 0.00 0.00 0.00 38 1013.4
20260507192336 15 298 14.5 20.9 0.00 0.00 0.00 38 1013.6
20260507191832 14 336 6.4 14.5 0.00 0.00 0.00 38 1013.4
20260507191328 14 302 6.4 12.9 0.00 0.00 0.00 39 1013.6
20260507190825 14 310 9.7 14.5 0.00 0.00 0.00 40 1013.8
20260507190324 13 272 9.7 12.9 0.00 0.00 0.00 38 1013.5
20260507185822 14 286 4.8 16.1 0.00 0.00 0.00 38 1013.9
20260507185319 15 305 14.5 20.9 0.00 0.00 0.00 38 1013.8